Sigfox identifier Datetime Temperature Humidity SNR
003B5CE9 2019-02-20 14:04:23 20.8 23 24.7
003B5CE9 2019-02-20 13:31:47 20.9 24 24.8
003B5CE9 2019-02-20 12:59:13 21.1 24 24.3
003B5CE9 2019-02-20 12:57:58 20.8 24 24.4
003B5CE9 2019-02-20 12:25:23 20.8 25 24.5
003B5CE9 2019-02-20 11:52:51 20.8 26 24.6
003B5CE9 2019-02-20 11:20:15 20.8 26 24
003B5CE9 2019-02-20 10:47:41 20.8 27 24
003B5CE9 2019-02-20 10:15:08 20.8 27 23.4
003B5CE9 2019-02-20 09:42:34 20.7 27 23.4
003B5CE9 2019-02-20 09:10:01 20.7 27 22.5
003B5CE9 2019-02-20 08:37:28 20.7 27 21.6
003B5CE9 2019-02-20 08:04:59 20.7 27 21.6
003B5CE9 2019-02-20 07:32:24 20.7 27 21.4
003B5CE9 2019-02-20 06:59:50 20.7 27 21.2
003B5CE9 2019-02-20 06:27:13 20.7 27 21.2
003B5CE9 2019-02-20 05:54:37 20.7 27 20.9
003B5CE9 2019-02-20 05:22:02 20.7 27 20.7
003B5CE9 2019-02-20 04:49:28 20.8 27 20.6
003B5CE9 2019-02-20 04:16:53 20.8 27 20.5
003B5CE9 2019-02-20 03:44:20 20.8 27 20.2
003B5CE9 2019-02-20 03:11:48 20.8 27 19.9
003B5CE9 2019-02-20 02:39:15 20.8 27 19.6
003B5CE9 2019-02-20 02:06:43 20.8 27 19.5
003B5CE9 2019-02-20 01:34:10 20.8 27 19.6
003B5CE9 2019-02-20 01:01:37 20.8 27 19.3
003B5CE9 2019-02-20 00:29:04 20.8 27 19.1
003B5CE9 2019-02-19 23:56:31 20.8 27 18.6
003B5CE9 2019-02-19 23:23:58 20.8 27 18.4
003B5CE9 2019-02-19 22:51:25 20.9 27 20.1
003B5CE9 2019-02-19 22:18:52 20.9 27 19.8
003B5CE9 2019-02-19 21:46:19 20.9 27 19.8
003B5CE9 2019-02-19 21:13:46 20.9 27 19.8
003B5CE9 2019-02-19 20:41:14 20.9 27 19.6
003B5CE9 2019-02-19 20:08:41 20.9 27 19.5
003B5CE9 2019-02-19 19:36:09 20.9 27 19.6
003B5CE9 2019-02-19 19:03:36 21 27 19.4
003B5CE9 2019-02-19 18:31:05 21 27 19.3
003B5CE9 2019-02-19 17:58:32 21.1 27 19.3
003B5CE9 2019-02-19 17:25:58 21.1 27 19.3
003B5CE9 2019-02-19 16:53:25 21.1 27 19.1
003B5CE9 2019-02-19 16:20:54 21.1 27 19.1
003B5CE9 2019-02-19 15:48:21 21.1 27 19.2
003B5CE9 2019-02-19 15:15:49 21.1 27 18.9
003B5CE9 2019-02-19 14:43:19 21.1 27 18.9
003B5CE9 2019-02-19 13:38:12 21.1 27 18.8
003B5CE9 2019-02-19 13:05:40 21 26 18.9
003B5CE9 2019-02-19 12:33:07 21 26 18.8
003B5CE9 2019-02-19 12:00:34 21.1 26 18.7
003B5CE9 2019-02-19 11:28:05 21.1 26 18.6
003B5CE9 2019-02-19 10:55:30 21 26 18.6
003B5CE9 2019-02-19 10:23:00 21.1 26 18.5
003B5CE9 2019-02-19 10:21:40 20.9 26 18.5
003B5CE9 2019-02-19 09:49:08 20.9 26 18.6
003B5CE9 2019-02-19 09:16:35 20.8 25 15.2
003B5CE9 2019-02-19 08:44:08 20.8 25 15.1
003B5CE9 2019-02-19 07:06:25 20.8 25 14.8
003B5CE9 2019-02-19 06:33:53 20.8 25 15
003B5CE9 2019-02-19 06:01:20 20.8 24 14.4
003B5CE9 2019-02-19 05:28:46 20.8 24 14.7
003B5CE9 2019-02-19 04:56:13 20.8 24 18.3
003B5CE9 2019-02-19 04:23:43 20.8 24 18.2
003B5CE9 2019-02-19 03:51:07 20.8 24 18.1
003B5CE9 2019-02-19 03:18:35 20.8 24 18
003B5CE9 2019-02-19 02:46:03 20.8 24 18.1
003B5CE9 2019-02-19 02:13:31 20.8 24 18
003B5CE9 2019-02-19 01:41:00 20.8 24 18.2
003B5CE9 2019-02-19 01:08:30 20.8 23 18.3
003B5CE9 2019-02-19 00:35:58 20.8 23 18.4
003B5CE9 2019-02-19 00:03:25 20.8 23 18.6
003B5CE9 2019-02-18 23:30:53 20.8 23 18.8
003B5CE9 2019-02-18 22:58:21 20.8 23 19.1
003B5CE9 2019-02-18 22:25:51 20.8 23 19.3
003B5CE9 2019-02-18 21:53:17 20.8 23 19.6
003B5CE9 2019-02-18 21:20:43 20.8 22 20.4
003B5CE9 2019-02-18 20:48:07 20.8 22 20.6
003B5CE9 2019-02-18 20:15:34 20.8 22 20.9
003B5CE9 2019-02-18 19:43:02 20.9 22 21.2
003B5CE9 2019-02-18 19:10:27 20.9 22 21.4
003B5CE9 2019-02-18 18:37:54 20.9 22 21.6
003B5CE9 2019-02-18 18:05:20 20.9 22 21.8
003B5CE9 2019-02-18 17:32:48 20.9 21 22
003B5CE9 2019-02-18 16:27:42 21 21 22.1
003B5CE9 2019-02-18 15:55:10 21 21 22.3
003B5CE9 2019-02-18 15:22:38 21 21 21.4
003B5CE9 2019-02-18 14:50:01 21.1 21 21.8
003B5CE9 2019-02-18 14:17:29 21.1 20 21.9
003B5CE9 2019-02-18 13:44:53 21.2 20 22.1
003B5CE9 2019-02-18 13:12:20 21.3 20 22.3
003B5CE9 2019-02-18 12:39:48 21.4 19 22.6
003B5CE9 2019-02-18 12:07:16 21.5 19 22.6
003B5CE9 2019-02-18 11:34:44 21.4 19 22.7
003B5CE9 2019-02-18 11:02:12 21.4 19 22.8
003B5CE9 2019-02-18 10:29:39 21.4 19 23
003B5CE9 2019-02-18 09:57:06 21.3 19 23
003B5CE9 2019-02-18 09:24:32 21.3 19 23.1
003B5CE9 2019-02-18 08:52:00 21.2 18 23.2
003B5CE9 2019-02-18 08:19:27 21.2 18 23.2
003B5CE9 2019-02-18 07:46:52 21.3 18 23.2
003B5CE9 2019-02-18 07:45:35 21.1 18 23.2
003B5CE9 2019-02-18 07:13:02 21.1 18 23.3
003B5CE9 2019-02-18 06:40:29 21.1 18 23.3
003B5CE9 2019-02-18 06:07:56 21.1 18 23.3
003B5CE9 2019-02-18 05:35:22 21.1 18 23.4
003B5CE9 2019-02-18 05:02:49 21.1 18 23.5
003B5CE9 2019-02-18 04:30:17 21.1 18 23.5
003B5CE9 2019-02-18 03:57:44 21.1 18 23.6
003B5CE9 2019-02-18 03:25:10 21.1 18 23.7
003B5CE9 2019-02-18 02:52:36 21.1 19 23.7
003B5CE9 2019-02-18 02:20:02 21.1 19 23.8
003B5CE9 2019-02-18 01:47:29 21.1 19 23.7
003B5CE9 2019-02-18 01:14:56 21.1 19 23.8
003B5CE9 2019-02-18 00:42:24 21.1 19 23.9
003B5CE9 2019-02-18 00:09:51 21.2 19 23.8
003B5CE9 2019-02-17 23:37:17 21.1 19 23.7
003B5CE9 2019-02-17 23:04:45 21.1 19 23.8
003B5CE9 2019-02-17 22:32:13 21.1 19 23.7
003B5CE9 2019-02-17 21:59:40 21.1 19 23.8
003B5CE9 2019-02-17 21:27:09 21.1 19 23.8
003B5CE9 2019-02-17 20:54:36 21.2 19 23.8
003B5CE9 2019-02-17 20:22:04 21.2 19 23.8
003B5CE9 2019-02-17 19:49:32 21.2 20 23.8
003B5CE9 2019-02-17 19:17:00 21.2 19 23.9
003B5CE9 2019-02-17 18:44:27 21.2 20 23.9
003B5CE9 2019-02-17 18:11:55 21.2 20 23.9
003B5CE9 2019-02-17 17:39:22 21.2 20 24.4
003B5CE9 2019-02-17 17:06:49 21.3 20 24.3
003B5CE9 2019-02-17 16:34:15 21.2 20 24.4
003B5CE9 2019-02-17 16:01:42 21.3 20 24.4
003B5CE9 2019-02-17 15:29:08 21.2 20 24.4
003B5CE9 2019-02-17 14:56:34 21.3 20 24.3
003B5CE9 2019-02-17 14:24:01 21.3 20 24.3
003B5CE9 2019-02-17 13:51:29 21.3 20 24.3
003B5CE9 2019-02-17 13:18:56 21.3 20 24.2
003B5CE9 2019-02-17 12:46:22 21.3 20 24.2
003B5CE9 2019-02-17 12:13:49 21.2 20 24.2
003B5CE9 2019-02-17 11:41:15 21.2 20 24.7
003B5CE9 2019-02-17 11:08:41 21.2 20 24.7
003B5CE9 2019-02-17 10:36:07 21.2 21 24.7
003B5CE9 2019-02-17 10:03:33 21.2 21 24.7
003B5CE9 2019-02-17 09:30:57 21.2 21 24.8
003B5CE9 2019-02-17 08:58:24 21.2 21 24.8
003B5CE9 2019-02-17 08:25:51 21.2 21 24.8
003B5CE9 2019-02-17 07:53:15 21.2 21 24.8
003B5CE9 2019-02-17 07:20:40 21.2 21 24.8
003B5CE9 2019-02-17 06:48:06 21.2 21 24.8
003B5CE9 2019-02-17 06:15:33 21.2 22 24.8
003B5CE9 2019-02-17 05:43:00 21.2 22 24.8
003B5CE9 2019-02-17 05:10:27 21.4 22 24.7
003B5CE9 2019-02-17 05:09:11 21.2 22 24.8
003B5CE9 2019-02-17 04:36:38 21.2 22 24.3
003B5CE9 2019-02-17 04:04:04 21.2 23 24.4
003B5CE9 2019-02-17 03:31:31 21.2 23 24.3
003B5CE9 2019-02-17 02:58:57 21.2 23 24.2
003B5CE9 2019-02-17 02:26:24 21.2 23 24.1
003B5CE9 2019-02-17 01:53:51 21.2 23 24.2
003B5CE9 2019-02-17 01:21:17 21.2 24 24.2
003B5CE9 2019-02-17 00:48:43 21.2 24 24.2
003B5CE9 2019-02-17 00:16:10 21.3 24 24.3
003B5CE9 2019-02-16 23:43:36 21.2 24 24.1
003B5CE9 2019-02-16 23:11:02 21.3 24 24.6
003B5CE9 2019-02-16 22:38:28 21.3 24 24.1
003B5CE9 2019-02-16 22:05:54 21.3 24 23.9
003B5CE9 2019-02-16 21:33:19 21.3 24 23.9
003B5CE9 2019-02-16 21:00:44 21.3 25 23.9
003B5CE9 2019-02-16 20:28:10 21.3 25 23.9
003B5CE9 2019-02-16 19:55:35 21.3 25 24.4
003B5CE9 2019-02-16 19:22:59 21.3 25 24.5
003B5CE9 2019-02-16 18:50:26 21.3 25 24.3
003B5CE9 2019-02-16 18:17:51 21.3 25 24.3
003B5CE9 2019-02-16 17:45:18 21.3 25 24.4
003B5CE9 2019-02-16 17:12:43 21.4 25 24.3
003B5CE9 2019-02-16 16:40:10 21.5 25 24.4
003B5CE9 2019-02-16 16:07:37 21.5 25 24.5
003B5CE9 2019-02-16 15:35:04 21.5 25 24.5
003B5CE9 2019-02-16 15:02:31 21.5 25 24.5
003B5CE9 2019-02-16 14:29:57 21.5 25 24.4
003B5CE9 2019-02-16 13:57:26 21.5 25 24.5
003B5CE9 2019-02-16 13:24:53 21.4 25 24.5
003B5CE9 2019-02-16 12:52:21 21.4 25 24.5
003B5CE9 2019-02-16 12:19:48 21.4 25 24.5
003B5CE9 2019-02-16 11:47:16 21.4 25 24.5
003B5CE9 2019-02-16 11:14:44 21.3 25 24.4
003B5CE9 2019-02-16 10:42:12 21.3 25 24.4
003B5CE9 2019-02-16 10:09:40 21.3 25 24.6
003B5CE9 2019-02-16 09:37:08 21.3 25 24.1
003B5CE9 2019-02-16 09:04:35 21.3 25 24.1
003B5CE9 2019-02-16 08:32:02 21.3 25 24.2
003B5CE9 2019-02-16 07:59:31 21.3 25 24.2
003B5CE9 2019-02-16 07:26:58 21.3 25 24.2
003B5CE9 2019-02-16 06:54:26 21.3 25 24.3
003B5CE9 2019-02-16 06:21:55 21.3 25 23.7
003B5CE9 2019-02-16 05:49:23 21.3 25 23.7
003B5CE9 2019-02-16 05:16:51 21.3 25 23.8
003B5CE9 2019-02-16 04:44:19 21.3 25 23.8
003B5CE9 2019-02-16 04:11:48 21.3 25 23.7
003B5CE9 2019-02-16 03:39:15 21.3 25 23.8
003B5CE9 2019-02-16 03:06:42 21.3 25 23.6
003B5CE9 2019-02-16 02:34:08 21.6 25 23.5
003B5CE9 2019-02-16 02:32:52 21.3 25 23.4
003B5CE9 2019-02-16 02:00:20 21.3 25 23.4
003B5CE9 2019-02-16 01:27:48 21.4 25 23.4
003B5CE9 2019-02-16 00:55:15 21.4 25 23.2
003B5CE9 2019-02-16 00:22:42 21.4 25 23.3
003B5CE9 2019-02-15 23:50:08 21.4 25 23.3
003B5CE9 2019-02-15 23:17:34 21.4 25 23.1
003B5CE9 2019-02-15 22:45:00 21.5 25 23.2
003B5CE9 2019-02-15 22:12:26 21.5 25 23.1
003B5CE9 2019-02-15 21:39:54 21.6 25 23.1
003B5CE9 2019-02-15 21:07:21 21.6 25 22.9
003B5CE9 2019-02-15 20:34:48 21.6 25 22.9
003B5CE9 2019-02-15 20:02:15 21.7 25 22.9
003B5CE9 2019-02-15 19:29:43 21.7 25 22.8
003B5CE9 2019-02-15 18:57:11 21.8 25 22.9
003B5CE9 2019-02-15 18:24:39 21.8 25 22.9
003B5CE9 2019-02-15 17:52:07 21.8 24 22.8
003B5CE9 2019-02-15 17:19:34 21.9 24 22.8
003B5CE9 2019-02-15 16:47:01 21.8 24 22.9
003B5CE9 2019-02-15 16:14:28 21.8 24 22.8
003B5CE9 2019-02-15 15:41:56 21.8 24 22.8
003B5CE9 2019-02-15 15:09:23 21.8 24 22.8
003B5CE9 2019-02-15 14:36:51 21.8 23 22.7
003B5CE9 2019-02-15 14:04:17 21.8 24 22.7
003B5CE9 2019-02-15 13:31:44 21.8 24 22.8
003B5CE9 2019-02-15 12:59:10 21.7 24 22.9
003B5CE9 2019-02-15 12:26:37 21.7 24 22.9
003B5CE9 2019-02-15 11:54:05 21.7 24 23
003B5CE9 2019-02-15 11:21:32 21.6 24 23
003B5CE9 2019-02-15 10:48:59 21.6 24 23
003B5CE9 2019-02-15 10:16:25 21.5 25 23
003B5CE9 2019-02-15 09:43:51 21.5 25 23.7
003B5CE9 2019-02-15 09:11:18 21.5 25 23.7
003B5CE9 2019-02-15 08:38:44 21.4 25 23.8
003B5CE9 2019-02-15 08:06:11 21.4 25 23.8
003B5CE9 2019-02-15 07:33:39 21.4 25 23.8
003B5CE9 2019-02-15 07:01:06 21.4 25 23.8
003B5CE9 2019-02-15 06:28:32 21.4 25 23.8
003B5CE9 2019-02-15 05:56:00 21.4 25 23.7
003B5CE9 2019-02-15 05:23:28 21.4 25 23.6
003B5CE9 2019-02-15 04:50:56 21.4 25 23.4
003B5CE9 2019-02-15 04:18:24 21.4 25 23.3
003B5CE9 2019-02-15 03:45:50 21.4 25 23.2
003B5CE9 2019-02-15 03:13:20 21.4 25 23
003B5CE9 2019-02-15 02:40:48 21.4 25 23
003B5CE9 2019-02-15 02:08:15 21.4 25 22.9
003B5CE9 2019-02-15 01:35:43 21.5 25 22.7
003B5CE9 2019-02-15 01:03:12 21.5 25 22.5
003B5CE9 2019-02-15 00:30:40 21.5 25 22.3
003B5CE9 2019-02-14 23:58:09 21.7 25 22.1
003B5CE9 2019-02-14 23:56:54 21.5 25 21.9
003B5CE9 2019-02-14 23:24:22 21.5 25 21.9
003B5CE9 2019-02-14 22:51:51 21.5 25 21.8
003B5CE9 2019-02-14 22:19:21 21.5 25 21.7
003B5CE9 2019-02-14 21:46:50 21.5 25 21.4
003B5CE9 2019-02-14 21:14:19 21.6 24 21.3
003B5CE9 2019-02-14 20:41:47 21.6 24 19.9
003B5CE9 2019-02-14 20:09:16 21.7 24 19.6
003B5CE9 2019-02-14 19:36:45 21.7 24 19.3
003B5CE9 2019-02-14 19:04:14 21.8 24 19.2
003B5CE9 2019-02-14 18:31:43 21.8 24 18.9
003B5CE9 2019-02-14 17:59:11 21.9 24 18.6
003B5CE9 2019-02-14 17:26:39 21.9 24 18.3
003B5CE9 2019-02-14 16:54:06 21.9 24 18.1
003B5CE9 2019-02-14 16:21:35 21.9 25 17.9
003B5CE9 2019-02-14 15:49:02 21.8 24 17.9
003B5CE9 2019-02-14 15:16:29 21.7 24 18.3
003B5CE9 2019-02-14 14:43:58 21.6 24 18.4
003B5CE9 2019-02-14 14:11:27 21.5 24 18.6
003B5CE9 2019-02-14 13:38:54 21.5 24 18.7
003B5CE9 2019-02-14 13:06:22 21.3 24 19
003B5CE9 2019-02-14 12:33:50 21.3 24 19.1
003B5CE9 2019-02-14 12:01:17 21.2 24 19.3
003B5CE9 2019-02-14 11:28:43 21.1 24 19.3
003B5CE9 2019-02-14 10:56:12 21 24 19.6
003B5CE9 2019-02-14 10:23:37 20.9 24 19.7
003B5CE9 2019-02-14 09:51:03 20.9 24 19.7
003B5CE9 2019-02-14 09:18:30 20.8 24 19.6
003B5CE9 2019-02-14 08:45:57 20.8 24 19.5
003B5CE9 2019-02-14 08:13:24 20.8 25 19.7
003B5CE9 2019-02-14 07:40:51 20.8 25 19.7
003B5CE9 2019-02-14 07:08:18 20.9 25 20
003B5CE9 2019-02-14 06:35:45 20.8 25 19.9
003B5CE9 2019-02-14 06:03:12 20.9 25 20
003B5CE9 2019-02-14 05:30:39 20.9 25 19.9
003B5CE9 2019-02-14 04:58:04 20.9 25 19.9
003B5CE9 2019-02-14 04:25:32 20.9 25 19.8
003B5CE9 2019-02-14 03:52:59 20.9 25 19.9
003B5CE9 2019-02-14 03:20:26 20.9 25 20
003B5CE9 2019-02-14 02:47:54 20.9 25 20.2
003B5CE9 2019-02-14 02:15:22 20.9 25 20.2
003B5CE9 2019-02-14 01:42:47 20.9 25 19.9
003B5CE9 2019-02-14 01:10:14 20.9 25 19.6
003B5CE9 2019-02-14 00:37:42 20.9 25 19.3
003B5CE9 2019-02-14 00:05:08 20.9 25 19.3
003B5CE9 2019-02-13 23:32:34 21 25 19
003B5CE9 2019-02-13 23:00:02 21 25 19
003B5CE9 2019-02-13 22:27:26 21 25 19.1
003B5CE9 2019-02-13 21:54:52 21.1 25 19.2
003B5CE9 2019-02-13 21:22:17 21.4 24 19.2
003B5CE9 2019-02-13 21:21:01 21.2 25 19.1
003B5CE9 2019-02-13 20:48:27 21.2 25 18.9
003B5CE9 2019-02-13 20:15:54 21.3 25 18.7
003B5CE9 2019-02-13 19:43:20 21.3 25 18.8
003B5CE9 2019-02-13 19:10:46 21.4 25 18.6
003B5CE9 2019-02-13 18:38:13 21.4 25 18.6
003B5CE9 2019-02-13 18:05:39 21.4 26 18.2
003B5CE9 2019-02-13 17:33:06 21.4 26 18.2
003B5CE9 2019-02-13 17:00:33 21.3 26 17.8
003B5CE9 2019-02-13 16:28:01 21.3 25 17.7
003B5CE9 2019-02-13 15:55:29 21.2 25 17.7
003B5CE9 2019-02-13 15:22:56 21.2 25 17.9
003B5CE9 2019-02-13 14:50:23 21.2 24 17.6
003B5CE9 2019-02-13 14:17:50 21.2 24 17.4
003B5CE9 2019-02-13 13:45:17 21.2 24 17
003B5CE9 2019-02-13 13:12:44 21.1 24 17
003B5CE9 2019-02-13 12:40:11 21.1 24 17.1
003B5CE9 2019-02-13 12:07:38 21.1 24 17.2
003B5CE9 2019-02-13 11:35:04 21 24 17.5
003B5CE9 2019-02-13 11:02:34 20.9 23 17.3
003B5CE9 2019-02-13 10:29:57 20.9 23 17.5
003B5CE9 2019-02-13 09:57:24 20.9 22 17.5
003B5CE9 2019-02-13 09:24:51 20.8 22 17.2
003B5CE9 2019-02-13 08:52:16 20.8 21 16.9
003B5CE9 2019-02-13 08:19:43 20.8 20 16.4
003B5CE9 2019-02-13 07:47:09 20.8 20 16.1
003B5CE9 2019-02-13 07:14:36 20.8 20 16.3
003B5CE9 2019-02-13 06:42:03 20.8 20 16.3
003B5CE9 2019-02-13 06:09:28 20.8 20 16.3
003B5CE9 2019-02-13 05:36:55 20.8 20 16.3
003B5CE9 2019-02-13 05:04:22 20.8 20 15.9
003B5CE9 2019-02-13 04:31:50 20.8 20 15.9
003B5CE9 2019-02-13 03:59:19 20.8 20 15.8
003B5CE9 2019-02-13 03:26:47 20.8 20 15.6
003B5CE9 2019-02-13 02:54:13 20.8 20 15.6
003B5CE9 2019-02-13 02:21:41 20.9 19 15.8
003B5CE9 2019-02-13 01:49:08 20.9 19 15.3
003B5CE9 2019-02-13 01:16:34 20.9 20 15.3
003B5CE9 2019-02-13 00:44:00 20.9 20 15.2
003B5CE9 2019-02-13 00:11:26 20.9 20 15.5
003B5CE9 2019-02-12 23:38:53 21 20 15.5
003B5CE9 2019-02-12 23:06:20 21 20 15.5
003B5CE9 2019-02-12 22:33:48 21.1 20 15.6
003B5CE9 2019-02-12 22:01:15 21.2 20 15.3
003B5CE9 2019-02-12 21:28:43 21.3 21 15.2
003B5CE9 2019-02-12 20:56:12 21.3 21 15.2
003B5CE9 2019-02-12 20:23:40 21.4 21 15.9
003B5CE9 2019-02-12 19:51:08 21.5 21 15.9
003B5CE9 2019-02-12 19:18:33 21.6 20 16.3
003B5CE9 2019-02-12 18:45:59 21.8 20 17
003B5CE9 2019-02-12 18:44:44 21.6 20 17.1
003B5CE9 2019-02-12 18:12:09 21.7 20 16.8
003B5CE9 2019-02-12 17:39:36 21.9 20 17.2
003B5CE9 2019-02-12 17:07:05 22 20 17
003B5CE9 2019-02-12 16:34:31 22.1 20 17.5
003B5CE9 2019-02-12 16:01:56 22.2 20 17.6
003B5CE9 2019-02-12 15:29:23 22.2 20 17.6
003B5CE9 2019-02-12 14:56:49 22.1 20 17.8
003B5CE9 2019-02-12 14:24:15 21.6 21 17.8
003B5CE9 2019-02-12 13:51:41 21.3 21 18
003B5CE9 2019-02-12 13:19:08 21.3 21 17.9
003B5CE9 2019-02-12 12:46:30 21.3 22 18
003B5CE9 2019-02-12 12:13:53 21.3 22 18.2
003B5CE9 2019-02-12 11:41:22 21.2 22 18.2
003B5CE9 2019-02-12 11:08:43 21.2 23 18.2
003B5CE9 2019-02-12 10:36:10 21.1 23 18.5
003B5CE9 2019-02-12 10:03:33 21 24 18.5
003B5CE9 2019-02-12 09:30:58 21 24 18.4
003B5CE9 2019-02-12 08:58:22 20.9 24 18.5
003B5CE9 2019-02-12 08:25:47 20.9 25 18.7
003B5CE9 2019-02-12 07:53:10 20.9 25 18.6
003B5CE9 2019-02-12 07:20:34 20.9 26 18.5
003B5CE9 2019-02-12 06:47:58 20.9 26 18.8
003B5CE9 2019-02-12 06:15:27 20.9 26 18.6
003B5CE9 2019-02-12 05:42:48 20.9 26 18.2
003B5CE9 2019-02-12 05:10:11 20.9 27 18.2
003B5CE9 2019-02-12 04:37:35 20.9 27 18.3
003B5CE9 2019-02-12 04:05:00 20.9 27 18.1
003B5CE9 2019-02-12 03:32:24 20.9 27 18.2
003B5CE9 2019-02-12 02:59:49 20.9 27 17.8
003B5CE9 2019-02-12 02:27:17 21 27 18
003B5CE9 2019-02-12 01:54:38 21 27 18.2
003B5CE9 2019-02-12 01:22:04 21 27 18
003B5CE9 2019-02-12 00:49:28 21 27 18.2
003B5CE9 2019-02-12 00:16:50 21.1 27 18.2
003B5CE9 2019-02-11 23:44:16 21.1 27 18.4
003B5CE9 2019-02-11 23:11:45 21.2 27 18.7
003B5CE9 2019-02-11 22:39:05 21.2 27 18.6
003B5CE9 2019-02-11 22:06:32 21.3 27 18.9
003B5CE9 2019-02-11 21:33:59 21.4 27 18.9
003B5CE9 2019-02-11 21:01:22 21.4 27 18.5
003B5CE9 2019-02-11 20:28:48 21.5 27 18.8
003B5CE9 2019-02-11 19:56:14 21.6 27 19.3
003B5CE9 2019-02-11 19:23:39 21.7 27 19.2
003B5CE9 2019-02-11 18:51:04 21.8 27 19
003B5CE9 2019-02-11 18:18:31 21.9 27 19.3
003B5CE9 2019-02-11 17:45:56 22 28 18.4
003B5CE9 2019-02-11 17:13:21 22.1 28 13.8
003B5CE9 2019-02-11 16:40:47 22.2 28 11
003B5CE9 2019-02-11 16:08:09 22.2 32 0